This is the latest recevied weather packets stored in our database for station/object W6JCZ-13. If no packets are shown the sender has not sent any weather packets the latest 10 day(s).
| Time | Temp. | Humidity | Pressure | Rain* | Wind** | Luminosity | Snow |
|---|---|---|---|---|---|---|---|
| 1787871017 | 35° C | 33% | 1010.1 hPa | 0 mm | - | - | - |
| 1787870417 | 34.44° C | 35% | 1010.4 hPa | 0 mm | - | - | - |
| 1787869817 | 34.44° C | 35% | 1010.4 hPa | 0 mm | - | - | - |
| 1787869217 | 35° C | 35% | 1010.4 hPa | 0 mm | - | - | - |
| 1787868617 | 35° C | 33% | 1010.6 hPa | 0 mm | - | - | - |
| 1787868017 | 34.44° C | 34% | 1010.8 hPa | 0 mm | - | - | - |
| 1787867417 | 34.44° C | 33% | 1010.8 hPa | 0 mm | - | - | - |
| 1787866817 | 35° C | 32% | 1010.9 hPa | 0 mm | - | - | - |
| 1787866217 | 35° C | 33% | 1011.2 hPa | 0 mm | - | - | - |
| 1787865617 | 35° C | 34% | 1011.2 hPa | 0 mm | - | - | - |
| 1787865017 | 34.44° C | 34% | 1011.4 hPa | 0 mm | - | - | - |
| 1787864417 | 34.44° C | 35% | 1011.5 hPa | 0 mm | - | - | - |
| 1787863817 | 33.89° C | 35% | 1011.5 hPa | 0 mm | - | - | - |
| 1787863217 | 34.44° C | 34% | 1011.5 hPa | 0 mm | - | - | - |
| 1787862617 | 34.44° C | 35% | 1011.4 hPa | 0 mm | - | - | - |
| 1787862017 | 35° C | 33% | 1011.4 hPa | 0 mm | - | - | - |
| 1787861417 | 34.44° C | 36% | 1011.3 hPa | 0 mm | - | - | - |
| 1787860817 | 33.89° C | 33% | 1011.5 hPa | 0 mm | - | - | - |
| 1787860217 | 33.89° C | 34% | 1011.6 hPa | 0 mm | - | - | - |
| 1787859617 | 33.33° C | 35% | 1011.6 hPa | 0 mm | - | - | - |
| 1787859017 | 33.33° C | 36% | 1011.7 hPa | 0 mm | - | - | - |
| 1787858417 | 32.78° C | 36% | 1011.8 hPa | 0 mm | - | - | - |
| 1787857817 | 33.33° C | 36% | 1011.8 hPa | 0 mm | - | - | - |
| 1787857217 | 33.33° C | 35% | 1012 hPa | 0 mm | - | - | - |
| 1787856617 | 32.22° C | 37% | 1011.9 hPa | 0 mm | - | - | - |
* Rain latest hour (hover to see other rain measurements)
** Current wind speed in m/s (hover to see current wind gust speed)